Time,TemperatureF,DewpointF,PressureIn,WindDirection,WindDirectionDegrees,WindSpeedMPH,WindSpeedGustMPH,Humidity,HourlyPrecipIn,Conditions,Clouds,dailyrainin,SoftwareType,DateUTC
2015-01-26 00:03:00,61.3,29.6,29.97,West,276,2.0,2.0,30,0.00,,,0.00,Wunderground v.1.15,2015-01-26 08:03:00,
2015-01-26 00:08:00,61.2,30.3,29.97,West,276,0.0,2.0,31,0.00,,,0.00,Wunderground v.1.15,2015-01-26 08:08:00,
2015-01-26 00:13:00,61.2,29.5,29.98,West,276,0.0,1.0,30,0.00,,,0.00,Wunderground v.1.15,2015-01-26 08:13:00,
2015-01-26 00:19:00,61.0,29.3,29.97,West,276,0.0,1.0,30,0.00,,,0.00,Wunderground v.1.15,2015-01-26 08:19:00,
2015-01-26 00:24:00,60.7,29.9,29.98,West,276,0.0,1.0,31,0.00,,,0.00,Wunderground v.1.15,2015-01-26 08:24:00,
2015-01-26 00:29:00,60.5,29.7,29.98,West,276,0.0,1.0,31,0.00,,,0.00,Wunderground v.1.15,2015-01-26 08:29:00,
2015-01-26 00:35:00,59.9,30.7,29.98,West,276,1.0,2.0,33,0.00,,,0.00,Wunderground v.1.15,2015-01-26 08:35:00,
2015-01-26 00:40:00,58.9,31.3,29.99,West,276,1.0,1.0,35,0.00,,,0.00,Wunderground v.1.15,2015-01-26 08:40:00,
2015-01-26 00:45:00,57.7,32.9,29.99,West,276,0.0,1.0,39,0.00,,,0.00,Wunderground v.1.15,2015-01-26 08:45:00,
2015-01-26 00:51:00,56.6,33.2,29.99,West,276,0.0,1.0,41,0.00,,,0.00,Wunderground v.1.15,2015-01-26 08:51:00,
2015-01-26 00:56:00,55.8,33.6,29.99,West,276,0.0,1.0,43,0.00,,,0.00,Wunderground v.1.15,2015-01-26 08:56:00,
2015-01-26 01:01:00,55.2,33.1,29.99,West,276,0.0,0.0,43,0.00,,,0.00,Wunderground v.1.15,2015-01-26 09:01:00,
2015-01-26 01:06:00,54.7,33.2,29.99,West,276,0.0,0.0,44,0.00,,,0.00,Wunderground v.1.15,2015-01-26 09:06:00,
2015-01-26 01:12:00,54.0,33.7,29.99,West,276,0.0,0.0,46,0.00,,,0.00,Wunderground v.1.15,2015-01-26 09:12:00,
2015-01-26 01:17:00,53.4,33.7,29.99,West,276,0.0,0.0,47,0.00,,,0.00,Wunderground v.1.15,2015-01-26 09:17:00,
2015-01-26 01:22:00,52.9,33.7,29.99,West,276,0.0,0.0,48,0.00,,,0.00,Wunderground v.1.15,2015-01-26 09:22:00,
2015-01-26 01:28:00,52.2,34.1,30.00,West,276,0.0,0.0,50,0.00,,,0.00,Wunderground v.1.15,2015-01-26 09:28:00,
2015-01-26 01:33:00,51.8,34.2,30.00,West,276,0.0,0.0,51,0.00,,,0.00,Wunderground v.1.15,2015-01-26 09:33:00,
2015-01-26 01:38:00,51.4,35.3,30.00,West,276,0.0,0.0,54,0.00,,,0.00,Wunderground v.1.15,2015-01-26 09:38:00,
2015-01-26 01:44:00,51.1,36.4,30.00,West,276,0.0,0.0,57,0.00,,,0.00,Wunderground v.1.15,2015-01-26 09:44:00,
2015-01-26 01:49:00,50.9,37.1,30.00,West,276,0.0,0.0,59,0.00,,,0.00,Wunderground v.1.15,2015-01-26 09:49:00,
2015-01-26 01:54:00,50.8,37.4,30.00,West,276,0.0,0.0,60,0.00,,,0.00,Wunderground v.1.15,2015-01-26 09:54:00,
2015-01-26 01:59:00,50.7,37.3,30.00,West,276,0.0,0.0,60,0.00,,,0.00,Wunderground v.1.15,2015-01-26 09:59:00,
2015-01-26 02:04:00,50.7,36.9,30.00,West,276,0.0,0.0,59,0.00,,,0.00,Wunderground v.1.15,2015-01-26 10:04:00,
2015-01-26 02:09:00,50.6,36.4,30.00,West,276,0.0,0.0,58,0.00,,,0.00,Wunderground v.1.15,2015-01-26 10:09:00,
2015-01-26 02:14:00,50.6,35.9,30.00,West,276,0.0,1.0,57,0.00,,,0.00,Wunderground v.1.15,2015-01-26 10:14:00,
2015-01-26 02:19:00,50.6,35.9,30.00,West,276,0.0,1.0,57,0.00,,,0.00,Wunderground v.1.15,2015-01-26 10:19:00,
2015-01-26 02:24:00,50.5,36.3,30.00,West,276,0.0,0.0,58,0.00,,,0.00,Wunderground v.1.15,2015-01-26 10:24:00,
2015-01-26 02:29:00,50.4,36.6,30.00,West,276,0.0,0.0,59,0.00,,,0.00,Wunderground v.1.15,2015-01-26 10:29:00,
2015-01-26 02:34:00,50.3,36.9,30.00,West,276,0.0,1.0,60,0.00,,,0.00,Wunderground v.1.15,2015-01-26 10:34:00,
2015-01-26 02:39:00,50.1,36.7,30.01,West,276,0.0,1.0,60,0.00,,,0.00,Wunderground v.1.15,2015-01-26 10:39:00,
2015-01-26 02:44:00,50.0,37.1,30.01,West,276,0.0,0.0,61,0.00,,,0.00,Wunderground v.1.15,2015-01-26 10:44:00,
2015-01-26 02:49:00,49.9,37.4,30.01,West,276,0.0,1.0,62,0.00,,,0.00,Wunderground v.1.15,2015-01-26 10:49:00,
2015-01-26 02:54:00,49.8,37.7,30.01,West,276,0.0,0.0,63,0.00,,,0.00,Wunderground v.1.15,2015-01-26 10:54:00,
2015-01-26 02:59:00,49.6,37.1,30.01,West,276,0.0,0.0,62,0.00,,,0.00,Wunderground v.1.15,2015-01-26 10:59:00,
2015-01-26 03:04:00,49.5,37.0,30.01,West,276,0.0,1.0,62,0.00,,,0.00,Wunderground v.1.15,2015-01-26 11:04:00,
2015-01-26 03:09:00,49.5,37.0,30.01,West,276,0.0,2.0,62,0.00,,,0.00,Wunderground v.1.15,2015-01-26 11:09:00,
2015-01-26 03:14:00,49.7,37.2,30.01,West,276,0.0,1.0,62,0.00,,,0.00,Wunderground v.1.15,2015-01-26 11:14:00,
2015-01-26 03:19:00,49.8,37.3,30.01,West,276,0.0,1.0,62,0.00,,,0.00,Wunderground v.1.15,2015-01-26 11:19:00,
2015-01-26 03:24:00,49.8,37.3,30.01,West,276,0.0,0.0,62,0.00,,,0.00,Wunderground v.1.15,2015-01-26 11:24:00,
2015-01-26 03:30:00,49.9,37.0,30.01,West,276,0.0,0.0,61,0.00,,,0.00,Wunderground v.1.15,2015-01-26 11:30:00,
2015-01-26 03:35:00,50.0,37.1,30.01,West,276,0.0,0.0,61,0.00,,,0.00,Wunderground v.1.15,2015-01-26 11:35:00,
2015-01-26 03:39:00,50.1,37.2,30.01,West,276,0.0,0.0,61,0.00,,,0.00,Wunderground v.1.15,2015-01-26 11:39:00,
2015-01-26 03:44:00,50.1,37.2,30.00,West,276,0.0,1.0,61,0.00,,,0.00,Wunderground v.1.15,2015-01-26 11:44:00,
2015-01-26 03:50:00,50.3,37.4,30.01,West,276,0.0,1.0,61,0.00,,,0.00,Wunderground v.1.15,2015-01-26 11:50:00,
2015-01-26 03:54:00,50.5,37.1,30.01,West,276,0.0,1.0,60,0.00,,,0.00,Wunderground v.1.15,2015-01-26 11:54:00,
2015-01-26 03:59:00,50.7,36.5,30.01,West,276,0.0,1.0,58,0.00,,,0.00,Wunderground v.1.15,2015-01-26 11:59:00,
2015-01-26 04:04:00,50.9,35.3,30.01,West,276,0.0,0.0,55,0.00,,,0.00,Wunderground v.1.15,2015-01-26 12:04:00,
2015-01-26 04:10:00,51.0,34.5,30.00,West,276,0.0,1.0,53,0.00,,,0.00,Wunderground v.1.15,2015-01-26 12:10:00,
2015-01-26 04:15:00,51.0,33.5,30.00,West,276,0.0,1.0,51,0.00,,,0.00,Wunderground v.1.15,2015-01-26 12:15:00,
2015-01-26 04:20:00,51.2,32.7,30.00,West,276,0.0,1.0,49,0.00,,,0.00,Wunderground v.1.15,2015-01-26 12:20:00,
2015-01-26 04:25:00,51.5,32.4,30.00,West,276,0.0,1.0,48,0.00,,,0.00,Wunderground v.1.15,2015-01-26 12:25:00,
2015-01-26 04:30:00,51.9,32.8,29.99,West,276,0.0,1.0,48,0.00,,,0.00,Wunderground v.1.15,2015-01-26 12:30:00,
2015-01-26 04:35:00,52.1,31.9,30.00,West,276,0.0,1.0,46,0.00,,,0.00,Wunderground v.1.15,2015-01-26 12:35:00,
2015-01-26 04:40:00,52.2,32.0,30.00,West,276,0.0,1.0,46,0.00,,,0.00,Wunderground v.1.15,2015-01-26 12:40:00,
2015-01-26 04:45:00,52.3,32.1,29.99,West,276,0.0,0.0,46,0.00,,,0.00,Wunderground v.1.15,2015-01-26 12:45:00,
2015-01-26 04:50:00,52.3,33.2,30.00,West,276,0.0,2.0,48,0.00,,,0.00,Wunderground v.1.15,2015-01-26 12:50:00,
2015-01-26 04:55:00,52.4,33.3,29.99,West,276,0.0,1.0,48,0.00,,,0.00,Wunderground v.1.15,2015-01-26 12:55:00,
2015-01-26 05:00:00,52.5,32.8,29.99,West,276,0.0,1.0,47,0.00,,,0.00,Wunderground v.1.15,2015-01-26 13:00:00,
2015-01-26 05:05:00,52.7,32.5,29.99,West,276,0.0,2.0,46,0.00,,,0.00,Wunderground v.1.15,2015-01-26 13:05:00,
2015-01-26 05:10:00,52.8,32.6,29.99,West,276,0.0,0.0,46,0.00,,,0.00,Wunderground v.1.15,2015-01-26 13:10:00,
2015-01-26 05:15:00,53.0,32.8,29.99,West,276,0.0,1.0,46,0.00,,,0.00,Wunderground v.1.15,2015-01-26 13:15:00,
2015-01-26 05:20:00,53.2,32.4,29.99,West,276,0.0,0.0,45,0.00,,,0.00,Wunderground v.1.15,2015-01-26 13:20:00,
2015-01-26 05:25:00,53.2,32.9,29.99,West,276,0.0,1.0,46,0.00,,,0.00,Wunderground v.1.15,2015-01-26 13:25:00,
2015-01-26 05:30:00,52.7,33.5,29.99,West,276,0.0,0.0,48,0.00,,,0.00,Wunderground v.1.15,2015-01-26 13:30:00,
2015-01-26 05:35:00,52.2,33.6,29.99,West,276,0.0,0.0,49,0.00,,,0.00,Wunderground v.1.15,2015-01-26 13:35:00,
2015-01-26 05:40:00,51.9,34.3,29.98,West,276,1.0,1.0,51,0.00,,,0.00,Wunderground v.1.15,2015-01-26 13:40:00,
2015-01-26 05:45:00,52.1,34.5,29.98,West,276,1.0,2.0,51,0.00,,,0.00,Wunderground v.1.15,2015-01-26 13:45:00,
2015-01-26 05:50:00,52.5,34.4,29.98,West,276,1.0,1.0,50,0.00,,,0.00,Wunderground v.1.15,2015-01-26 13:50:00,
2015-01-26 05:55:00,53.0,34.8,29.98,West,276,0.0,2.0,50,0.00,,,0.00,Wunderground v.1.15,2015-01-26 13:55:00,
2015-01-26 06:00:00,53.1,34.4,29.98,West,276,0.0,1.0,49,0.00,,,0.00,Wunderground v.1.15,2015-01-26 14:00:00,
2015-01-26 06:05:00,52.9,34.2,29.98,West,276,0.0,1.0,49,0.00,,,0.00,Wunderground v.1.15,2015-01-26 14:05:00,
2015-01-26 06:10:00,52.6,34.5,29.98,West,276,0.0,0.0,50,0.00,,,0.00,Wunderground v.1.15,2015-01-26 14:10:00,
2015-01-26 06:15:00,52.5,34.4,29.98,West,276,1.0,2.0,50,0.00,,,0.00,Wunderground v.1.15,2015-01-26 14:15:00,
2015-01-26 06:20:00,53.0,34.3,29.98,West,276,0.0,1.0,49,0.00,,,0.00,Wunderground v.1.15,2015-01-26 14:20:00,
2015-01-26 06:25:00,53.5,34.8,29.98,West,276,1.0,2.0,49,0.00,,,0.00,Wunderground v.1.15,2015-01-26 14:25:00,
2015-01-26 06:30:00,53.9,34.6,29.98,West,276,0.0,1.0,48,0.00,,,0.00,Wunderground v.1.15,2015-01-26 14:30:00,
2015-01-26 06:35:00,54.4,35.1,29.98,West,276,0.0,2.0,48,0.00,,,0.00,Wunderground v.1.15,2015-01-26 14:35:00,
2015-01-26 06:40:00,54.3,34.5,29.97,West,276,0.0,1.0,47,0.00,,,0.00,Wunderground v.1.15,2015-01-26 14:40:00,
2015-01-26 06:45:00,54.0,34.7,29.97,West,276,0.0,1.0,48,0.00,,,0.00,Wunderground v.1.15,2015-01-26 14:45:00,
2015-01-26 06:50:00,53.9,34.6,29.97,West,276,1.0,2.0,48,0.00,,,0.00,Wunderground v.1.15,2015-01-26 14:50:00,
2015-01-26 06:55:00,53.9,34.6,29.97,West,276,1.0,2.0,48,0.00,,,0.00,Wunderground v.1.15,2015-01-26 14:55:00,
2015-01-26 07:00:00,53.8,34.6,29.97,West,276,0.0,1.0,48,0.00,,,0.00,Wunderground v.1.15,2015-01-26 15:00:00,
2015-01-26 07:05:00,53.8,34.6,29.97,West,276,0.0,1.0,48,0.00,,,0.00,Wunderground v.1.15,2015-01-26 15:05:00,
2015-01-26 07:10:00,53.7,34.5,29.97,West,276,1.0,1.0,48,0.00,,,0.00,Wunderground v.1.15,2015-01-26 15:10:00,
2015-01-26 07:15:00,53.6,33.8,29.97,West,276,2.0,4.0,47,0.00,,,0.00,Wunderground v.1.15,2015-01-26 15:15:00,
2015-01-26 07:20:00,53.6,33.8,29.97,West,276,1.0,1.0,47,0.00,,,0.00,Wunderground v.1.15,2015-01-26 15:20:00,
2015-01-26 07:25:00,53.7,33.9,29.97,West,276,0.0,2.0,47,0.00,,,0.00,Wunderground v.1.15,2015-01-26 15:25:00,
2015-01-26 07:30:00,53.6,34.4,29.97,West,276,0.0,1.0,48,0.00,,,0.00,Wunderground v.1.15,2015-01-26 15:30:00,
2015-01-26 07:35:00,53.4,34.2,29.97,West,276,0.0,1.0,48,0.00,,,0.00,Wunderground v.1.15,2015-01-26 15:35:00,
2015-01-26 07:41:00,53.1,33.9,29.97,West,276,0.0,0.0,48,0.00,,,0.00,Wunderground v.1.15,2015-01-26 15:41:00,
2015-01-26 07:46:00,53.0,34.3,29.98,West,276,0.0,0.0,49,0.00,,,0.00,Wunderground v.1.15,2015-01-26 15:46:00,
2015-01-26 07:51:00,52.9,34.8,29.97,West,276,0.0,0.0,50,0.00,,,0.00,Wunderground v.1.15,2015-01-26 15:51:00,
2015-01-26 07:56:00,53.0,34.8,29.97,West,276,0.0,0.0,50,0.00,,,0.00,Wunderground v.1.15,2015-01-26 15:56:00,
2015-01-26 08:01:00,53.2,35.5,29.98,West,276,0.0,0.0,51,0.00,,,0.00,Wunderground v.1.15,2015-01-26 16:01:00,
2015-01-26 08:06:00,53.4,35.7,29.98,West,276,0.0,0.0,51,0.00,,,0.00,Wunderground v.1.15,2015-01-26 16:06:00,
2015-01-26 08:11:00,53.5,35.3,29.98,West,276,0.0,0.0,50,0.00,,,0.00,Wunderground v.1.15,2015-01-26 16:11:00,
2015-01-26 08:16:00,53.6,35.9,29.98,West,276,0.0,0.0,51,0.00,,,0.00,Wunderground v.1.15,2015-01-26 16:16:00,
2015-01-26 08:21:00,53.6,35.9,29.98,West,276,0.0,0.0,51,0.00,,,0.00,Wunderground v.1.15,2015-01-26 16:21:00,
2015-01-26 08:26:00,53.8,35.6,29.98,West,276,0.0,0.0,50,0.00,,,0.00,Wunderground v.1.15,2015-01-26 16:26:00,
2015-01-26 08:31:00,54.1,37.3,29.98,West,276,0.0,0.0,53,0.00,,,0.00,Wunderground v.1.15,2015-01-26 16:31:00,
2015-01-26 08:36:00,54.5,37.2,29.98,West,276,1.0,1.0,52,0.00,,,0.00,Wunderground v.1.15,2015-01-26 16:36:00,
2015-01-26 08:41:00,55.1,37.3,29.98,West,276,0.0,1.0,51,0.00,,,0.00,Wunderground v.1.15,2015-01-26 16:41:00,
2015-01-26 08:46:00,55.7,36.8,29.98,West,276,1.0,2.0,49,0.00,,,0.00,Wunderground v.1.15,2015-01-26 16:46:00,
2015-01-26 08:51:00,56.3,36.8,29.98,West,276,1.0,2.0,48,0.00,,,0.00,Wunderground v.1.15,2015-01-26 16:51:00,
2015-01-26 08:56:00,56.6,38.2,29.98,West,276,0.0,2.0,50,0.00,,,0.00,Wunderground v.1.15,2015-01-26 16:56:00,
2015-01-26 09:01:00,56.8,38.3,29.98,West,276,0.0,0.0,50,0.00,,,0.00,Wunderground v.1.15,2015-01-26 17:01:00,
2015-01-26 09:06:00,56.8,39.4,29.98,West,276,1.0,1.0,52,0.00,,,0.00,Wunderground v.1.15,2015-01-26 17:06:00,
2015-01-26 09:11:00,56.5,40.5,29.99,West,276,0.0,0.0,55,0.00,,,0.00,Wunderground v.1.15,2015-01-26 17:11:00,
2015-01-26 09:16:00,56.1,39.2,29.99,West,276,0.0,0.0,53,0.00,,,0.00,Wunderground v.1.15,2015-01-26 17:16:00,
2015-01-26 09:21:00,56.1,36.1,29.99,West,276,0.0,0.0,47,0.00,,,0.00,Wunderground v.1.15,2015-01-26 17:21:00,
2015-01-26 09:26:00,56.3,36.3,29.99,West,276,0.0,1.0,47,0.00,,,0.00,Wunderground v.1.15,2015-01-26 17:26:00,
2015-01-26 09:31:00,56.4,36.9,29.99,West,276,0.0,1.0,48,0.00,,,0.00,Wunderground v.1.15,2015-01-26 17:31:00,
2015-01-26 09:36:00,56.6,37.1,29.99,West,276,0.0,1.0,48,0.00,,,0.00,Wunderground v.1.15,2015-01-26 17:36:00,
2015-01-26 09:41:00,56.8,37.8,29.99,West,276,0.0,0.0,49,0.00,,,0.00,Wunderground v.1.15,2015-01-26 17:41:00,
2015-01-26 09:46:00,57.0,37.5,29.98,West,280,0.0,2.0,48,0.00,,,0.00,Wunderground v.1.15,2015-01-26 17:46:00,
2015-01-26 09:51:00,57.3,35.6,29.98,West,280,0.0,1.0,44,0.00,,,0.00,Wunderground v.1.15,2015-01-26 17:51:00,
2015-01-26 09:56:00,57.9,35.5,29.99,West,280,0.0,1.0,43,0.00,,,0.00,Wunderground v.1.15,2015-01-26 17:56:00,
2015-01-26 10:01:00,58.5,36.1,29.98,West,280,0.0,0.0,43,0.00,,,0.00,Wunderground v.1.15,2015-01-26 18:01:00,
2015-01-26 10:06:00,59.0,34.1,29.98,West,280,0.0,1.0,39,0.00,,,0.00,Wunderground v.1.15,2015-01-26 18:06:00,
2015-01-26 10:12:00,59.4,35.1,29.98,West,280,0.0,0.0,40,0.00,,,0.00,Wunderground v.1.15,2015-01-26 18:12:00,
2015-01-26 10:17:00,59.8,36.0,29.98,West,280,0.0,1.0,41,0.00,,,0.00,Wunderground v.1.15,2015-01-26 18:17:00,
2015-01-26 10:22:00,60.3,36.5,29.98,West,280,0.0,0.0,41,0.00,,,0.00,Wunderground v.1.15,2015-01-26 18:22:00,
2015-01-26 10:27:00,60.8,39.3,29.98,West,280,1.0,2.0,45,0.00,,,0.00,Wunderground v.1.15,2015-01-26 18:27:00,
2015-01-26 10:32:00,61.1,40.1,29.98,West,280,0.0,0.0,46,0.00,,,0.00,Wunderground v.1.15,2015-01-26 18:32:00,
2015-01-26 10:37:00,61.3,39.2,29.98,West,280,0.0,0.0,44,0.00,,,0.00,Wunderground v.1.15,2015-01-26 18:37:00,
2015-01-26 10:42:00,61.4,37.5,29.98,West,280,0.0,0.0,41,0.00,,,0.00,Wunderground v.1.15,2015-01-26 18:42:00,
2015-01-26 10:48:00,61.6,34.4,29.98,West,280,0.0,0.0,36,0.00,,,0.00,Wunderground v.1.15,2015-01-26 18:48:00,
2015-01-26 10:53:00,61.8,35.2,29.97,West,280,0.0,4.0,37,0.00,,,0.00,Wunderground v.1.15,2015-01-26 18:53:00,
2015-01-26 10:58:00,62.1,38.1,29.97,West,280,0.0,0.0,41,0.00,,,0.00,Wunderground v.1.15,2015-01-26 18:58:00,
2015-01-26 11:03:00,62.4,35.8,29.97,West,280,0.0,2.0,37,0.00,,,0.00,Wunderground v.1.15,2015-01-26 19:03:00,
2015-01-26 11:08:00,62.6,36.6,29.97,West,280,0.0,2.0,38,0.00,,,0.00,Wunderground v.1.15,2015-01-26 19:08:00,
2015-01-26 11:13:00,62.8,36.8,29.97,West,280,0.0,1.0,38,0.00,,,0.00,Wunderground v.1.15,2015-01-26 19:13:00,
2015-01-26 11:18:00,63.1,33.5,29.96,SE,138,0.0,5.0,33,0.00,,,0.00,Wunderground v.1.15,2015-01-26 19:18:00,
2015-01-26 11:23:00,63.6,34.7,29.96,SE,138,0.0,1.0,34,0.00,,,0.00,Wunderground v.1.15,2015-01-26 19:23:00,
2015-01-26 11:28:00,63.9,33.4,29.96,South,173,2.0,4.0,32,0.00,,,0.00,Wunderground v.1.15,2015-01-26 19:28:00,